• In Deutschland
  • Länderverzeichnis
  • Für 7 Tage
  • Wassertemperatur
  • Satellitenkarten
  • Wetterkarte
  • Widgets
  • user-avatar
    Anmelden

    Stündliche Wetter La Paz

    Heute, 17 Januar, Mittwoch

    Zeit Temperatur Niederschläge Wind Luftdruck Luftfeuchtigkeit
    00:00 +5°C° 0 mm 2 m/S 474 mmHg 86%
    01:00 +6°C° 0 mm 1 m/S 474 mmHg 86%
    02:00 +5°C° 0,1 mm 1 m/S 473 mmHg 86%
    03:00 +5°C° 0,1 mm 1 m/S 473 mmHg 86%
    04:00 +5°C° 0,1 mm 1 m/S 473 mmHg 85%
    05:00 +6°C° 0,1 mm 1 m/S 474 mmHg 81%
    06:00 +7°C° 0,1 mm 1 m/S 475 mmHg 78%
    07:00 +7°C° 0,1 mm 1 m/S 475 mmHg 74%
    08:00 +9°C° 0,1 mm 1 m/S 476 mmHg 69%
    09:00 +9°C° 0,1 mm 2 m/S 477 mmHg 64%
    10:00 +11°C° 0,1 mm 3 m/S 478 mmHg 58%
    11:00 +12°C° 0,5 mm 3 m/S 478 mmHg 57%
    12:00 +12°C° 0,5 mm 3 m/S 478 mmHg 55%
    13:00 +13°C° 0,5 mm 4 m/S 478 mmHg 54%
    14:00 +13°C° 0,5 mm 4 m/S 477 mmHg 56%
    15:00 +12°C° 0,5 mm 4 m/S 476 mmHg 58%
    16:00 +12°C° 0,5 mm 4 m/S 476 mmHg 60%
    17:00 +10°C° 0,2 mm 3 m/S 475 mmHg 68%
    18:00 +9°C° 0,2 mm 3 m/S 475 mmHg 76%
    19:00 +8°C° 0,2 mm 2 m/S 474 mmHg 84%
    20:00 +7°C° 0,1 mm 2 m/S 474 mmHg 85%
    21:00 +7°C° 0,1 mm 2 m/S 475 mmHg 86%
    22:00 +6°C° 0,1 mm 2 m/S 475 mmHg 88%
    23:00 +6°C° 0,1 mm 2 m/S 475 mmHg 87%

    Morgen, 18 Januar, Donnerstag

    Zeit Temperatur Niederschläge Wind Luftdruck Luftfeuchtigkeit
    00:00 +6°C° 0,1 mm 2 m/S 474 mmHg 87%
    01:00 +6°C° 0,1 mm 1 m/S 474 mmHg 86%
    02:00 +6°C° 0,3 mm 1 m/S 474 mmHg 86%
    03:00 +6°C° 0,3 mm 1 m/S 474 mmHg 86%
    04:00 +5°C° 0,3 mm 0 m/S 474 mmHg 85%
    05:00 +7°C° 0,3 mm 1 m/S 474 mmHg 83%
    06:00 +7°C° 0,3 mm 1 m/S 475 mmHg 80%
    07:00 +8°C° 0,3 mm 1 m/S 476 mmHg 77%
    08:00 +9°C° 0,4 mm 1 m/S 476 mmHg 72%
    09:00 +9°C° 0,4 mm 2 m/S 477 mmHg 68%
    10:00 +10°C° 0,4 mm 3 m/S 478 mmHg 63%
    11:00 +11°C° 0,3 mm 3 m/S 477 mmHg 60%
    12:00 +12°C° 0,3 mm 3 m/S 477 mmHg 57%
    13:00 +13°C° 0,3 mm 4 m/S 477 mmHg 54%
    14:00 +12°C° 0,4 mm 4 m/S 477 mmHg 56%
    15:00 +12°C° 0,4 mm 4 m/S 476 mmHg 58%
    16:00 +12°C° 0,4 mm 4 m/S 476 mmHg 61%
    17:00 +10°C° 0,2 mm 4 m/S 475 mmHg 69%
    18:00 +9°C° 0,2 mm 3 m/S 475 mmHg 77%
    19:00 +7°C° 0,2 mm 3 m/S 474 mmHg 84%
    20:00 +7°C° 0,1 mm 3 m/S 474 mmHg 85%
    21:00 +5°C° 0,1 mm 3 m/S 475 mmHg 86%
    22:00 +6°C° 0,1 mm 2 m/S 475 mmHg 87%
    23:00 +6°C° 0,3 mm 2 m/S 475 mmHg 86%

    übermorgen, 19 Januar, Freitag

    Zeit Temperatur Niederschläge Wind Luftdruck Luftfeuchtigkeit
    00:00 +5°C° 0,3 mm 2 m/S 474 mmHg 86%
    01:00 +6°C° 0,3 mm 1 m/S 474 mmHg 86%
    02:00 +6°C° 0,5 mm 1 m/S 474 mmHg 86%
    03:00 +6°C° 0,5 mm 1 m/S 474 mmHg 86%
    04:00 +6°C° 0,5 mm 1 m/S 473 mmHg 85%
    05:00 +6°C° 0,7 mm 1 m/S 474 mmHg 84%
    06:00 +7°C° 0,7 mm 1 m/S 475 mmHg 82%
    07:00 +6°C° 0,7 mm 0 m/S 475 mmHg 81%
    08:00 +8°C° 0,7 mm 1 m/S 476 mmHg 77%
    09:00 +8°C° 0,7 mm 2 m/S 476 mmHg 73%
    10:00 +9°C° 0,7 mm 2 m/S 477 mmHg 68%
    11:00 +10°C° 0,4 mm 3 m/S 477 mmHg 66%
    12:00 +11°C° 0,4 mm 3 m/S 477 mmHg 63%
    13:00 +11°C° 0,4 mm 4 m/S 477 mmHg 60%
    14:00 +11°C° 0,2 mm 4 m/S 476 mmHg 62%
    15:00 +11°C° 0,2 mm 4 m/S 476 mmHg 63%
    16:00 +10°C° 0,2 mm 4 m/S 475 mmHg 64%
    17:00 +8°C° 0 mm 4 m/S 475 mmHg 71%
    18:00 +7°C° 0 mm 4 m/S 474 mmHg 78%
    19:00 +5°C° 0 mm 3 m/S 474 mmHg 85%
    20:00 +5°C° 0 mm 3 m/S 474 mmHg 85%
    21:00 +5°C° 0 mm 2 m/S 474 mmHg 86%
    22:00 +5°C° 0 mm 2 m/S 474 mmHg 86%
    23:00 +5°C° 0 mm 2 m/S 474 mmHg 85%

    20 Januar, Samstag

    Zeit Temperatur Niederschläge Wind Luftdruck Luftfeuchtigkeit
    00:00 +5°C° 0 mm 1 m/S 473 mmHg 83%
    01:00 +5°C° 0 mm 1 m/S 473 mmHg 82%
    02:00 +5°C° 0,2 mm 1 m/S 473 mmHg 82%
    03:00 +5°C° 0,2 mm 1 m/S 473 mmHg 81%
    04:00 +5°C° 0,2 mm 1 m/S 473 mmHg 80%
    05:00 +6°C° 0,3 mm 1 m/S 473 mmHg 78%
    06:00 +6°C° 0,3 mm 1 m/S 474 mmHg 76%
    07:00 +7°C° 0,3 mm 1 m/S 475 mmHg 74%
    08:00 +7°C° 0,3 mm 2 m/S 476 mmHg 69%
    09:00 +9°C° 0,3 mm 2 m/S 476 mmHg 64%
    10:00 +10°C° 0,3 mm 3 m/S 477 mmHg 59%
    11:00 +11°C° 0,2 mm 4 m/S 477 mmHg 58%
    12:00 +12°C° 0,2 mm 4 m/S 477 mmHg 56%
    13:00 +12°C° 0,2 mm 4 m/S 477 mmHg 55%
    14:00 +12°C° 0,2 mm 4 m/S 476 mmHg 57%
    15:00 +11°C° 0,2 mm 4 m/S 475 mmHg 60%
    16:00 +11°C° 0,2 mm 4 m/S 475 mmHg 63%
    17:00 +8°C° 0,1 mm 4 m/S 474 mmHg 70%
    18:00 +8°C° 0,1 mm 3 m/S 474 mmHg 77%
    19:00 +7°C° 0,1 mm 3 m/S 473 mmHg 84%
    20:00 +5°C° 0 mm 3 m/S 473 mmHg 86%
    21:00 +6°C° 0 mm 2 m/S 474 mmHg 88%
    22:00 +6°C° 0 mm 2 m/S 474 mmHg 90%
    23:00 +5°C° 0 mm 2 m/S 473 mmHg 90%

    21 Januar, Sonntag

    Zeit Temperatur Niederschläge Wind Luftdruck Luftfeuchtigkeit
    00:00 +6°C° 0 mm 1 m/S 473 mmHg 89%
    01:00 +6°C° 0 mm 1 m/S 473 mmHg 88%
    02:00 +6°C° 0 mm 1 m/S 473 mmHg 87%
    03:00 +6°C° 0 mm 1 m/S 473 mmHg 86%
    04:00 +6°C° 0 mm 1 m/S 473 mmHg 85%
    05:00 +7°C° 0 mm 1 m/S 473 mmHg 82%
    06:00 +7°C° 0 mm 1 m/S 474 mmHg 78%
    07:00 +8°C° 0 mm 1 m/S 475 mmHg 74%
    08:00 +9°C° 0 mm 2 m/S 476 mmHg 67%
    09:00 +10°C° 0 mm 3 m/S 476 mmHg 60%
    10:00 +12°C° 0 mm 3 m/S 477 mmHg 53%
    11:00 +13°C° 0,1 mm 4 m/S 477 mmHg 52%
    12:00 +13°C° 0,1 mm 4 m/S 476 mmHg 51%
    13:00 +14°C° 0,1 mm 4 m/S 476 mmHg 50%
    14:00 +13°C° 0,1 mm 4 m/S 476 mmHg 54%
    15:00 +13°C° 0,1 mm 4 m/S 475 mmHg 57%
    16:00 +12°C° 0,1 mm 4 m/S 474 mmHg 61%
    17:00 +10°C° 0,1 mm 4 m/S 474 mmHg 69%
    18:00 +9°C° 0,1 mm 3 m/S 473 mmHg 76%
    19:00 +7°C° 0,1 mm 3 m/S 473 mmHg 84%
    20:00 +7°C° 0 mm 3 m/S 473 mmHg 86%
    21:00 +6°C° 0 mm 2 m/S 473 mmHg 88%
    22:00 +6°C° 0 mm 2 m/S 473 mmHg 89%
    23:00 +5°C° 0 mm 2 m/S 472 mmHg 89%

    22 Januar, Montag

    Zeit Temperatur Niederschläge Wind Luftdruck Luftfeuchtigkeit
    00:00 +6°C° 0 mm 1 m/S 472 mmHg 88%
    01:00 +6°C° 0 mm 1 m/S 472 mmHg 88%
    02:00 +6°C° 0 mm 1 m/S 471 mmHg 86%
    03:00 +5°C° 0 mm 1 m/S 471 mmHg 85%
    04:00 +5°C° 0 mm 1 m/S 471 mmHg 84%
    05:00 +6°C° 0 mm 1 m/S 472 mmHg 79%
    06:00 +7°C° 0 mm 1 m/S 473 mmHg 75%
    07:00 +8°C° 0 mm 1 m/S 474 mmHg 70%
    08:00 +9°C° 0 mm 2 m/S 475 mmHg 64%
    09:00 +10°C° 0 mm 2 m/S 476 mmHg 57%
    10:00 +12°C° 0 mm 3 m/S 477 mmHg 51%
    11:00 +13°C° 0,2 mm 4 m/S 476 mmHg 50%
    12:00 +13°C° 0,2 mm 4 m/S 476 mmHg 49%
    13:00 +14°C° 0,2 mm 4 m/S 476 mmHg 49%
    14:00 +13°C° 0,2 mm 4 m/S 475 mmHg 54%
    15:00 +12°C° 0,2 mm 4 m/S 475 mmHg 58%
    16:00 +11°C° 0,2 mm 4 m/S 474 mmHg 63%
    17:00 +10°C° 0,2 mm 4 m/S 473 mmHg 70%
    18:00 +9°C° 0,2 mm 3 m/S 473 mmHg 77%
    19:00 +7°C° 0,2 mm 3 m/S 472 mmHg 83%
    20:00 +7°C° 0,1 mm 3 m/S 472 mmHg 84%
    21:00 +6°C° 0,1 mm 2 m/S 472 mmHg 84%
    22:00 +6°C° 0,1 mm 2 m/S 473 mmHg 85%
    23:00 +6°C° 0,1 mm 2 m/S 472 mmHg 85%
    Mehr zeigen